(474961) = 2005 TJ46

Discovered at Kitt Peak on 2005-09-23 by Spacewatch.

Orbit

Orbit type: Main Belt

Note: WebGL enabled browser required.

epoch2023-09-13.0
epoch JD2460200.5
perihelion date2022-10-19.61751
perihelion JD2459872.11751
argument of perihelion (°)208.51780
ascending node (°)190.22955
inclination (°)17.38752
eccentricity0.2058742
perihelion distance (AU)2.5120419
Tisserand w.r.t. Jupiter3.1
ΔV w.r.t. Earth (km/sec)11.2
semimajor axis (AU)3.1632796
mean anomaly (°)57.52776
mean daily motion (°/day)0.17518520
aphelion distance (AU)3.815
period (years)5.63
P-vector [x]0.78378787
P-vector [y]0.61129451
P-vector [z]0.10952440
Q-vector [x]-0.61875690
Q-vector [y]0.78375137
Q-vector [z]0.05360669
absolute magnitude16.56
phase slope0.15
uncertainty0
referenceMPEC 2024-B91
observations used200
oppositions10
arc length (days)6694
first opposition used2005
last opposition used2024
residual rms (arc-secs)0.78
perturbers coarse indicatorM-v
perturbers precise indicator003Ek
first observation date used2005-09-23.0
last observation date used2024-01-21.0
computer nameMPCLINUX
JD of orbit computation2457688.135900
perihelion JD uncertainty (days)1.1363E-04
argument of perihelion uncertainty (°)1.7426E-05
ascending node uncertainty (°)1.0574E-05
inclination uncertainty (°)7.7538E-06
eccentricity uncertainty 1.5732E-07
perihelion distance uncertainty (AU)5.1539E-07
Minimum Orbit Intersection Distances (in AU)
for orbit epoch: 2460200.5, reference: E2024-B91
Mercury2.18808
Venus1.79265
Earth1.52996
Mars1.09528
Jupiter1.67909
Saturn5.93038
Uranus14.8014
Neptune26.9197

Observations

207 total observations over interval: 2005 09 23.29795 – 2024 01 21.572506
These data are available for download (format description).

Date (UT) J2000 RA J2000 Dec Magn Location Ref
2005 09 23.29795 01 40 47.88 +07 24 25.9 20.4 V 691 – Steward Observatory, Kitt Peak-Spacewatch MPS 175143
2005 09 23.31531 01 40 47.44 +07 24 14.7 20.2 V 691 – Steward Observatory, Kitt Peak-Spacewatch MPS 175143
2005 09 23.33269 01 40 47.00 +07 24 03.5 20.2 V 691 – Steward Observatory, Kitt Peak-Spacewatch MPS 175143
2005 10 01.25991 01 37 10.43 +05 53 04.0 19.1   704 – Lincoln Laboratory ETS, New Mexico MPS 144488
2005 10 01.27048 01 37 10.05 +05 52 57.9 19.6   704 – Lincoln Laboratory ETS, New Mexico MPS 144488
2005 10 01.28108 01 37 09.75 +05 52 50.2 19.5   704 – Lincoln Laboratory ETS, New Mexico MPS 144488
2005 10 01.28355 01 37 09.65 +05 52 48.2 19.9 V 691 – Steward Observatory, Kitt Peak-Spacewatch MPS 144488
2005 10 01.29168 01 37 09.40 +05 52 41.8 19.4   704 – Lincoln Laboratory ETS, New Mexico MPS 144488
2005 10 01.30093 01 37 09.08 +05 52 35.8 20.0 V 691 – Steward Observatory, Kitt Peak-Spacewatch MPS 144488
2005 10 01.30225 01 37 09.05 +05 52 35.2 19.4   704 – Lincoln Laboratory ETS, New Mexico MPS 144488
2005 10 01.32179 01 37 08.39 +05 52 21.0 19.9 V 691 – Steward Observatory, Kitt Peak-Spacewatch MPS 144488
2005 10 07.32757 01 33 46.86 +04 39 25.0   701 – Junk Bond Observatory, Sierra Vista MPS 144488
2005 10 07.36271 01 33 45.63 +04 39 00.4   701 – Junk Bond Observatory, Sierra Vista MPS 144488
2005 10 07.39791 01 33 44.30 +04 38 34.0   701 – Junk Bond Observatory, Sierra Vista MPS 144488
2005 10 08.34227 01 33 10.69 +04 26 56.6   701 – Junk Bond Observatory, Sierra Vista MPS 144488
2005 10 08.35294 01 33 10.30 +04 26 49.7 19.8 V 691 – Steward Observatory, Kitt Peak-Spacewatch MPS 146238
2005 10 08.37031 01 33 09.65 +04 26 36.8 19.7 V 691 – Steward Observatory, Kitt Peak-Spacewatch MPS 146238
2005 10 08.38767 01 33 08.98 +04 26 23.9 19.7 V 691 – Steward Observatory, Kitt Peak-Spacewatch MPS 146238
2005 10 08.40056 01 33 08.48 +04 26 14.1   701 – Junk Bond Observatory, Sierra Vista MPS 144488
2005 10 08.45885 01 33 06.28 +04 25 31.0   701 – Junk Bond Observatory, Sierra Vista MPS 144488
2005 10 10.29844 01 31 59.56 +04 02 51.0   701 – Junk Bond Observatory, Sierra Vista MPS 144488
2005 10 10.37531 01 31 56.57 +04 01 54.0   701 – Junk Bond Observatory, Sierra Vista MPS 144488
2005 10 10.45238 01 31 53.60 +04 00 57.2   701 – Junk Bond Observatory, Sierra Vista MPS 144488
2005 10 12.32178 01 30 44.38 +03 37 56.7 19.7 V 691 – Steward Observatory, Kitt Peak-Spacewatch MPS 146238
2005 10 12.33916 01 30 43.69 +03 37 43.9 19.6 V 691 – Steward Observatory, Kitt Peak-Spacewatch MPS 146238
2005 10 12.35654 01 30 43.00 +03 37 31.1 19.7 V 691 – Steward Observatory, Kitt Peak-Spacewatch MPS 146238
2005 10 25.30385 01 22 39.23 +01 04 17.1 20.8   705 – Apache Point MPS 211810
2005 10 25.30469 01 22 39.20 +01 04 16.6 20.0 V 705 – Apache Point MPS 211810
2005 10 27.30789 01 21 28.70 +00 42 22.7 20.7   705 – Apache Point MPS 211810
2005 10 27.30873 01 21 28.67 +00 42 22.2 20.0 V 705 – Apache Point MPS 211810
2005 10 28.37134 01 20 52.13 +00 31 01.9 21.1   705 – Apache Point MPS 211810
2005 10 28.37216 01 20 52.10 +00 31 01.3 20.2 V 705 – Apache Point MPS 211810
2005 10 31.26971 01 19 16.99 +00 01 11.1 21.1   705 – Apache Point MPS 211810
2005 10 31.27054 01 19 16.95 +00 01 10.7 20.2 V 705 – Apache Point MPS 211810
2005 11 01.27088 01 18 45.60 -00 08 43.8 21.3   705 – Apache Point MPS 211810
2005 11 01.27171 01 18 45.57 -00 08 44.3 20.3 V 705 – Apache Point MPS 211810
2005 11 02.35844 01 18 12.34 -00 19 15.7 21.1   705 – Apache Point MPS 211810
2005 11 02.35927 01 18 12.31 -00 19 16.2 20.3 V 705 – Apache Point MPS 211810
2005 11 03.29122 01 17 44.91 -00 28 05.4 20.8   705 – Apache Point MPS 211810
2005 11 03.29205 01 17 44.89 -00 28 05.8 20.1 V 705 – Apache Point MPS 211810
2005 11 05.32935 01 16 47.66 -00 46 41.1 21.2   705 – Apache Point MPS 211810
2005 11 05.33019 01 16 47.64 -00 46 41.5 20.3 V 705 – Apache Point MPS 211810
2005 11 06.27693 01 16 22.63 -00 55 00.0 21.3   705 – Apache Point MPS 211810
2005 11 06.27775 01 16 22.61 -00 55 00.4 20.4 V 705 – Apache Point MPS 211810
2005 11 07.32028 01 15 56.03 -01 03 54.2 21.5   705 – Apache Point MPS 211810
2005 11 07.32110 01 15 56.00 -01 03 54.7 20.5 V 705 – Apache Point MPS 211810
2008 04 05.30458 13 13 13.04 -04 21 07.7 21.4 V G96 – Mt. Lemmon Survey MPS 512486
2008 04 05.31068 13 13 12.79 -04 21 05.0 21.6 V G96 – Mt. Lemmon Survey MPS 512486
2008 04 05.31679 13 13 12.54 -04 21 02.7 21.2 V G96 – Mt. Lemmon Survey MPS 512486
2008 04 05.32293 13 13 12.28 -04 20 59.8 21.6 V G96 – Mt. Lemmon Survey MPS 512486
2014 04 23.29104 14 31 00.53 -03 59 20.6 22.7 V W84 – Cerro Tololo-DECam MPS 512486
2014 04 23.29127 14 31 00.54 -03 59 20.5 21.8 V W84 – Cerro Tololo-DECam MPS 790920
2014 04 23.29421 14 31 00.40 -03 59 19.4 22.7 V W84 – Cerro Tololo-DECam MPS 512486
2014 04 23.29444 14 31 00.41 -03 59 19.3   W84 – Cerro Tololo-DECam MPS 790920
2014 04 23.29738 14 31 00.27 -03 59 18.1 22.7 V W84 – Cerro Tololo-DECam MPS 512486
2014 04 23.29762 14 31 00.27 -03 59 18.0   W84 – Cerro Tololo-DECam MPS 790920
2014 04 23.30056 14 31 00.14 -03 59 17.0 22.7 V W84 – Cerro Tololo-DECam MPS 512486
2014 04 23.30079 14 31 00.15 -03 59 16.9   W84 – Cerro Tololo-DECam MPS 790920
2014 04 23.30374 14 31 00.00 -03 59 15.7 22.7 V W84 – Cerro Tololo-DECam MPS 512486
2014 04 23.30397 14 31 00.01 -03 59 15.6   W84 – Cerro Tololo-DECam MPS 790920
2014 04 24.31272 14 30 19.27 -03 52 50.4 21.8   W84 – Cerro Tololo-DECam MPS 790920
2014 04 24.31564 14 30 19.13 -03 52 49.2 22.7 V W84 – Cerro Tololo-DECam MPS 512486
2014 04 24.31587 14 30 19.13 -03 52 49.2   W84 – Cerro Tololo-DECam MPS 790920
2014 04 24.31882 14 30 19.00 -03 52 48.0   W84 – Cerro Tololo-DECam MPS 512486
2014 04 24.31906 14 30 19.00 -03 52 48.0   W84 – Cerro Tololo-DECam MPS 790920
2014 04 24.32199 14 30 18.87 -03 52 47.0   W84 – Cerro Tololo-DECam MPS 512486
2014 04 24.32222 14 30 18.87 -03 52 46.9   W84 – Cerro Tololo-DECam MPS 790920
2014 04 24.32513 14 30 18.74 -03 52 45.7   W84 – Cerro Tololo-DECam MPS 512486
2014 04 24.32536 14 30 18.74 -03 52 45.6   W84 – Cerro Tololo-DECam MPS 790920
2015 07 12.41902 17 39 58.603 +00 07 19.13 21.7 w F51 – Pan-STARRS 1, Haleakala MPS 615139
2015 07 12.43048 17 39 58.145 +00 07 17.44 21.6 w F51 – Pan-STARRS 1, Haleakala MPS 615139
2015 07 12.44223 17 39 57.704 +00 07 16.11 22.0 w F51 – Pan-STARRS 1, Haleakala MPS 615139
2016 08 29.38672 23 37 40.60 +08 09 14.8 20.1 V G96 – Mt. Lemmon Survey MPS 725558
2016 08 29.39157 23 37 40.42 +08 09 12.2 19.9 V G96 – Mt. Lemmon Survey MPS 725558
2016 08 29.39654 23 37 40.32 +08 09 09.8 20.3 V G96 – Mt. Lemmon Survey MPS 725558
2016 08 29.40139 23 37 40.14 +08 09 07.3 20.3 V G96 – Mt. Lemmon Survey MPS 725558
2016 09 10.26163 23 30 55.08 +06 17 10.1 19.4 V G96 – Mt. Lemmon Survey MPS 727700
2016 09 10.26671 23 30 54.87 +06 17 07.2 19.7 V G96 – Mt. Lemmon Survey MPS 727700
2016 09 10.27354 23 30 54.62 +06 17 02.8 19.6 V G96 – Mt. Lemmon Survey MPS 727700
2016 09 10.27883 23 30 54.41 +06 16 59.3 19.8 V G96 – Mt. Lemmon Survey MPS 727700
2016 10 05.21057 23 16 24.88 +01 30 34.0 20.4 G G45 – Space Surveillance Telescope, Atom Site MPS 1610879
2016 10 05.29721 23 16 22.40 +01 29 34.8 20.7 G G45 – Space Surveillance Telescope, Atom Site MPS 1610879
2016 10 05.33901 23 16 21.17 +01 29 06.9 20.3 G G45 – Space Surveillance Telescope, Atom Site MPS 1610879
2016 10 05.41621 23 16 19.01 +01 28 12.3 20.0 G G45 – Space Surveillance Telescope, Atom Site MPS 1610879
2016 10 08.31142 23 15 04.856 +00 55 30.58 20.1 i F51 – Pan-STARRS 1, Haleakala MPS 734295
2016 10 08.31206 23 15 04.831 +00 55 29.89 20.1 i F51 – Pan-STARRS 1, Haleakala MPS 734295
2016 10 08.32246 23 15 04.555 +00 55 23.29 20.3 i F51 – Pan-STARRS 1, Haleakala MPS 734295
2016 10 08.32310 23 15 04.555 +00 55 22.87 20.2 i F51 – Pan-STARRS 1, Haleakala MPS 734295
2016 10 08.33357 23 15 04.275 +00 55 15.64 20.2 i F51 – Pan-STARRS 1, Haleakala MPS 734295
2016 10 08.33421 23 15 04.256 +00 55 15.29 20.1 i F51 – Pan-STARRS 1, Haleakala MPS 734295
2016 10 08.34475 23 15 03.992 +00 55 08.26 20.5 i F51 – Pan-STARRS 1, Haleakala MPS 734295
2016 10 08.34544 23 15 03.961 +00 55 07.83 20.2 i F51 – Pan-STARRS 1, Haleakala MPS 734295
